Hourly Weather Krabi

Today, 20 October, Tuesday

Time Temperature Precipitation Wind Pressure Humidity
00:00 +25°C° 0.1 mm 0 mps 752 mmHg 85%
01:00 +25°C° 0.1 mm 0 mps 752 mmHg 86%
02:00 +25°C° 0 mm 0 mps 752 mmHg 87%
03:00 +24°C° 0 mm 0 mps 751 mmHg 88%
04:00 +24°C° 0 mm 0 mps 751 mmHg 88%
05:00 +24°C° 0 mm 0 mps 752 mmHg 87%
06:00 +25°C° 0 mm 0 mps 752 mmHg 87%
07:00 +27°C° 0 mm 1 mps 752 mmHg 86%
08:00 +27°C° 0 mm 0 mps 753 mmHg 77%
09:00 +29°C° 0 mm 0 mps 753 mmHg 68%
10:00 +31°C° 0 mm 0 mps 753 mmHg 58%
11:00 +34°C° 0 mm 1 mps 752 mmHg 57%
12:00 +34°C° 0 mm 1 mps 752 mmHg 55%
13:00 +35°C° 0 mm 2 mps 751 mmHg 54%
14:00 +34°C° 0.2 mm 2 mps 751 mmHg 58%
15:00 +32°C° 0.2 mm 2 mps 750 mmHg 62%
16:00 +32°C° 0.2 mm 2 mps 750 mmHg 66%
17:00 +30°C° 0.2 mm 2 mps 750 mmHg 72%
18:00 +29°C° 0.2 mm 1 mps 751 mmHg 78%
19:00 +28°C° 0.2 mm 1 mps 751 mmHg 84%
20:00 +28°C° 0 mm 1 mps 752 mmHg 86%
21:00 +27°C° 0 mm 1 mps 752 mmHg 87%
22:00 +27°C° 0 mm 1 mps 753 mmHg 89%
23:00 +27°C° 0 mm 1 mps 753 mmHg 90%

Tomorrow, 21 October, Wednesday

Time Temperature Precipitation Wind Pressure Humidity
00:00 +26°C° 0 mm 1 mps 753 mmHg 91%
01:00 +26°C° 0 mm 1 mps 753 mmHg 93%
02:00 +26°C° 0 mm 1 mps 752 mmHg 93%
03:00 +26°C° 0 mm 1 mps 752 mmHg 94%
04:00 +26°C° 0 mm 1 mps 752 mmHg 95%
05:00 +26°C° 0 mm 1 mps 752 mmHg 94%
06:00 +26°C° 0 mm 1 mps 752 mmHg 93%
07:00 +26°C° 0 mm 1 mps 753 mmHg 92%
08:00 +28°C° 0.1 mm 1 mps 753 mmHg 84%
09:00 +30°C° 0.1 mm 1 mps 754 mmHg 75%
10:00 +31°C° 0.1 mm 1 mps 754 mmHg 67%
11:00 +32°C° 0.3 mm 2 mps 753 mmHg 66%
12:00 +32°C° 0.3 mm 2 mps 753 mmHg 65%
13:00 +32°C° 0.3 mm 2 mps 752 mmHg 64%
14:00 +31°C° 0.8 mm 2 mps 752 mmHg 71%
15:00 +30°C° 0.8 mm 2 mps 751 mmHg 77%
16:00 +29°C° 0.8 mm 2 mps 751 mmHg 84%
17:00 +28°C° 0.1 mm 2 mps 751 mmHg 87%
18:00 +27°C° 0.1 mm 2 mps 751 mmHg 90%
19:00 +26°C° 0.1 mm 2 mps 752 mmHg 92%
20:00 +26°C° 0.1 mm 2 mps 752 mmHg 92%
21:00 +26°C° 0.1 mm 1 mps 752 mmHg 93%
22:00 +26°C° 0.1 mm 1 mps 753 mmHg 93%
23:00 +26°C° 0 mm 1 mps 753 mmHg 93%

Day after tomorrow, 22 October, Thursday

Time Temperature Precipitation Wind Pressure Humidity
00:00 +26°C° 0 mm 1 mps 752 mmHg 93%
01:00 +26°C° 0 mm 1 mps 752 mmHg 93%
02:00 +25°C° 0 mm 1 mps 752 mmHg 93%
03:00 +25°C° 0 mm 1 mps 751 mmHg 93%
04:00 +25°C° 0 mm 1 mps 751 mmHg 94%
05:00 +25°C° 0 mm 1 mps 751 mmHg 93%
06:00 +25°C° 0 mm 1 mps 752 mmHg 92%
07:00 +25°C° 0 mm 1 mps 752 mmHg 91%
08:00 +26°C° 0 mm 1 mps 753 mmHg 86%
09:00 +27°C° 0 mm 1 mps 753 mmHg 81%
10:00 +28°C° 0 mm 1 mps 754 mmHg 77%
11:00 +29°C° 0 mm 2 mps 753 mmHg 74%
12:00 +29°C° 0 mm 2 mps 753 mmHg 71%
13:00 +30°C° 0 mm 2 mps 752 mmHg 69%
14:00 +29°C° 0 mm 2 mps 752 mmHg 71%
15:00 +29°C° 0 mm 2 mps 751 mmHg 73%
16:00 +28°C° 0 mm 2 mps 751 mmHg 75%
17:00 +28°C° 0 mm 2 mps 751 mmHg 78%
18:00 +27°C° 0 mm 1 mps 751 mmHg 82%
19:00 +26°C° 0 mm 1 mps 752 mmHg 85%
20:00 +26°C° 0 mm 1 mps 752 mmHg 85%
21:00 +25°C° 0 mm 1 mps 753 mmHg 85%
22:00 +25°C° 0 mm 1 mps 753 mmHg 85%
23:00 +25°C° 0 mm 1 mps 753 mmHg 85%

23 October, Friday

Time Temperature Precipitation Wind Pressure Humidity
00:00 +25°C° 0 mm 1 mps 753 mmHg 85%
01:00 +25°C° 0 mm 1 mps 752 mmHg 85%
02:00 +25°C° 0 mm 1 mps 752 mmHg 86%
03:00 +25°C° 0 mm 1 mps 752 mmHg 87%
04:00 +25°C° 0 mm 1 mps 751 mmHg 88%
05:00 +25°C° 0 mm 1 mps 752 mmHg 88%
06:00 +25°C° 0 mm 1 mps 752 mmHg 88%
07:00 +25°C° 0 mm 1 mps 752 mmHg 88%
08:00 +27°C° 0 mm 1 mps 753 mmHg 81%
09:00 +29°C° 0 mm 1 mps 753 mmHg 73%
10:00 +31°C° 0 mm 1 mps 753 mmHg 65%
11:00 +31°C° 0.2 mm 1 mps 753 mmHg 65%
12:00 +31°C° 0.2 mm 2 mps 752 mmHg 65%
13:00 +32°C° 0.2 mm 2 mps 751 mmHg 65%
14:00 +31°C° 1.3 mm 2 mps 751 mmHg 70%
15:00 +30°C° 1.3 mm 2 mps 751 mmHg 75%
16:00 +30°C° 1.3 mm 1 mps 750 mmHg 80%
17:00 +29°C° 0.6 mm 1 mps 751 mmHg 83%
18:00 +28°C° 0.6 mm 1 mps 751 mmHg 87%
19:00 +27°C° 0.6 mm 1 mps 752 mmHg 90%
20:00 +26°C° 0 mm 1 mps 752 mmHg 91%
21:00 +26°C° 0 mm 1 mps 753 mmHg 92%
22:00 +26°C° 0 mm 1 mps 753 mmHg 93%
23:00 +25°C° 0 mm 1 mps 753 mmHg 93%

24 October, Saturday

Time Temperature Precipitation Wind Pressure Humidity
00:00 +25°C° 0 mm 1 mps 753 mmHg 94%
01:00 +25°C° 0 mm 1 mps 752 mmHg 94%
02:00 +25°C° 0 mm 1 mps 752 mmHg 94%
03:00 +25°C° 0 mm 1 mps 752 mmHg 94%
04:00 +25°C° 0 mm 1 mps 752 mmHg 94%
05:00 +25°C° 0 mm 1 mps 752 mmHg 94%
06:00 +25°C° 0 mm 1 mps 752 mmHg 94%
07:00 +25°C° 0 mm 1 mps 753 mmHg 94%
08:00 +27°C° 0 mm 2 mps 753 mmHg 85%
09:00 +29°C° 0 mm 2 mps 753 mmHg 77%
10:00 +31°C° 0 mm 2 mps 754 mmHg 69%
11:00 +31°C° 0 mm 2 mps 753 mmHg 67%
12:00 +32°C° 0 mm 2 mps 752 mmHg 65%
13:00 +34°C° 0 mm 2 mps 752 mmHg 63%
14:00 +32°C° 0.9 mm 2 mps 751 mmHg 68%
15:00 +31°C° 0.9 mm 2 mps 751 mmHg 74%
16:00 +30°C° 0.9 mm 2 mps 751 mmHg 79%
17:00 +29°C° 0.8 mm 2 mps 751 mmHg 83%
18:00 +28°C° 0.8 mm 2 mps 752 mmHg 87%
19:00 +27°C° 0.8 mm 1 mps 752 mmHg 91%
20:00 +27°C° 0.2 mm 1 mps 753 mmHg 92%
21:00 +27°C° 0.2 mm 1 mps 753 mmHg 92%
22:00 +27°C° 0.2 mm 1 mps 753 mmHg 92%
23:00 +27°C° 0 mm 1 mps 753 mmHg 92%

25 October, Sunday

Time Temperature Precipitation Wind Pressure Humidity
00:00 +26°C° 0 mm 1 mps 753 mmHg 93%
01:00 +26°C° 0 mm 1 mps 753 mmHg 93%
02:00 +26°C° 0 mm 1 mps 753 mmHg 94%
03:00 +26°C° 0 mm 1 mps 752 mmHg 94%
04:00 +25°C° 0 mm 1 mps 752 mmHg 95%
05:00 +26°C° 0.1 mm 1 mps 753 mmHg 95%
06:00 +26°C° 0.1 mm 1 mps 753 mmHg 94%
07:00 +26°C° 0.1 mm 1 mps 753 mmHg 94%
08:00 +28°C° 0 mm 1 mps 753 mmHg 85%
09:00 +30°C° 0 mm 1 mps 754 mmHg 77%
10:00 +30°C° 0 mm 0 mps 754 mmHg 68%
11:00 +32°C° 0 mm 1 mps 753 mmHg 65%
12:00 +34°C° 0 mm 2 mps 753 mmHg 62%
13:00 +34°C° 0 mm 2 mps 752 mmHg 59%
14:00 +33°C° 0.5 mm 3 mps 752 mmHg 63%
15:00 +33°C° 0.5 mm 3 mps 751 mmHg 67%
16:00 +31°C° 0.5 mm 3 mps 751 mmHg 71%
17:00 +30°C° 0.7 mm 2 mps 751 mmHg 77%
18:00 +29°C° 0.7 mm 2 mps 752 mmHg 82%
19:00 +28°C° 0.7 mm 2 mps 752 mmHg 87%
20:00 +27°C° 0.9 mm 1 mps 753 mmHg 88%
21:00 +27°C° 0.9 mm 1 mps 753 mmHg 90%
22:00 +27°C° 0.9 mm 1 mps 754 mmHg 91%
23:00 +27°C° 0.4 mm 1 mps 753 mmHg 92%

26 October, Monday

Time Temperature Precipitation Wind Pressure Humidity
00:00 +26°C° 0.4 mm 1 mps 753 mmHg 94%
01:00 +26°C° 0.4 mm 1 mps 753 mmHg 95%
02:00 +26°C° 0.1 mm 1 mps 752 mmHg 95%
03:00 +24°C° 0.1 mm 0 mps 752 mmHg 95%
04:00 +24°C° 0.1 mm 0 mps 752 mmHg 95%
05:00 +24°C° 0 mm 0 mps 752 mmHg 94%
06:00 +24°C° 0 mm 0 mps 752 mmHg 93%
07:00 +24°C° 0 mm 0 mps 753 mmHg 93%
08:00 +26°C° 0 mm 0 mps 753 mmHg 86%
09:00 +29°C° 0 mm 1 mps 754 mmHg 80%
10:00 +31°C° 0 mm 1 mps 754 mmHg 73%
11:00 +31°C° 0.1 mm 1 mps 754 mmHg 71%
12:00 +32°C° 0.1 mm 2 mps 753 mmHg 68%
13:00 +32°C° 0.1 mm 2 mps 752 mmHg 65%
14:00 +32°C° 0.1 mm 2 mps 752 mmHg 68%
15:00 +31°C° 0.1 mm 2 mps 751 mmHg 70%
16:00 +31°C° 0.1 mm 2 mps 751 mmHg 72%
17:00 +29°C° 0.4 mm 2 mps 751 mmHg 77%
18:00 +28°C° 0.4 mm 2 mps 752 mmHg 83%
19:00 +27°C° 0.4 mm 2 mps 752 mmHg 88%
20:00 +27°C° 0.4 mm 2 mps 753 mmHg 89%
21:00 +27°C° 0.4 mm 1 mps 753 mmHg 90%
22:00 +27°C° 0.4 mm 1 mps 754 mmHg 91%
23:00 +27°C° 0.4 mm 1 mps 753 mmHg 91%
Show more